Sitka Rocky Gutierrez current weather conditions

sailwx.info

Wind from 120 at 8 knots

Air temperature 7.0° C
Visibility: greater than 8.7 NM
Dewpoint 2.0° C

Last reported at 2016-Feb-08 06:53 UTC.
Time now 2016-Feb-08 08:16 UTC

Location: N 57°03' W 135°22'.
View on Google Maps.

See reports from other nearby stations

  
Tides and Currents Weather Stations Pressure Air Temp Water Temp Dewpoint Dewpoint Depression Visibility Wind Speed Wind Dir Waves Ship Positions
date/time (UTC)wind fromknots sea level pressurealtimeterstation pressurevisibilityair tempwater tempwave heightnotes
2016-Feb-08 06:53 120 8 8.7 7.0
2016-Feb-08 05:53 110 8 8.7 7.0
2016-Feb-08 04:53 130 7 8.7 7.0
2016-Feb-08 03:53 120 9 8.7 7.0
2016-Feb-08 02:53 120 10 8.7 8.0
2016-Feb-08 01:53 120 9 8.7 8.0
2016-Feb-08 00:53 130 5 8.7 8.0
2016-Feb-07 23:53 110 5 8.7 7.0
2016-Feb-07 22:53 150 7 8.7 8.0
2016-Feb-07 21:53 170 10 gusting 19 7.0 8.0
2016-Feb-07 21:00 180 15 gusting 20 6.1 8.0
2016-Feb-07 20:53 170 11 gusting 24 8.7 8.0
2016-Feb-07 19:53 130 11 8.7 7.0
2016-Feb-07 18:53 110 15 gusting 23 7.0 6.0 Light rain.
2016-Feb-07 17:53 100 17 8.7 6.0
2016-Feb-07 16:53 110 20 gusting 27 8.7 6.0
2016-Feb-07 15:53 100 18 gusting 27 8.7 6.0 Light rain.
2016-Feb-07 14:53 100 19 gusting 33 8.7 6.0
2016-Feb-07 13:53 120 18 gusting 25 8.7 6.0
2016-Feb-07 12:53 130 18 gusting 26 8.7 6.0
2016-Feb-07 11:53 090 17 gusting 24 8.7 6.0
2016-Feb-07 10:53 100 15 gusting 23 8.7 6.0
2016-Feb-07 09:53 100 10 8.7 5.0
2016-Feb-07 08:53 120 14 gusting 19 8.7 5.0
2016-Feb-07 07:53 110 11 8.7 5.0
2016-Feb-07 06:53 090 8 8.7 5.0
2016-Feb-07 05:53 120 7 8.7 4.0
2016-Feb-07 04:53 120 12 8.7 4.0
2016-Feb-07 03:53 100 9 8.7 3.0
2016-Feb-07 02:53 090 6 8.7 2.0
2016-Feb-07 01:53 090 7 8.7 3.0
2016-Feb-07 00:53 100 8 8.7 4.0
2016-Feb-06 23:53 080 5 8.7 4.0
2016-Feb-06 22:53 110 6 8.7 4.0
2016-Feb-06 21:53 110 7 8.7 4.0
2016-Feb-06 20:53 080 6 8.7 4.0
2016-Feb-06 19:53 120 4 8.7 4.0
2016-Feb-06 18:53 110 9 8.7 3.0 Light rain.
2016-Feb-06 17:53 120 4 8.7 2.0 Light rain.
2016-Feb-06 16:53 110 8 8.7 2.0
2016-Feb-06 15:53 080 3 8.7 2.0 Light rain.
2016-Feb-06 14:53 110 6 8.7 2.0
2016-Feb-06 14:39 120 6 8.7 1.0 Light rain.
2016-Feb-06 13:53 5.2 1.0 Light snow. Mist.
2016-Feb-06 13:47 070 3 4.3 1.0 Light snow. Mist.
2016-Feb-06 13:39 070 3 1.7 1.0 Light snow. Mist.
2016-Feb-06 13:33 060 4 1.5 1.0 Light snow. Mist.
2016-Feb-06 13:24 1.7 1.0 Light snow. Mist.
2016-Feb-06 13:05 080 3 5.2 2.0 Light rain. Mist.
2016-Feb-06 12:53 6.1 2.0 Light rain.
2016-Feb-06 11:53 050 4 7.0 3.0 Light rain.
2016-Feb-06 11:41 180 6 7.0 3.0 Light rain.
2016-Feb-06 11:13 120 5 6.1 3.0 Light rain.
2016-Feb-06 10:53 120 5 8.7 3.0 Light rain.
2016-Feb-06 10:48 100 6 8.7 3.0 Light rain.
2016-Feb-06 10:17 080 7 8.7 3.0 Light rain.
2016-Feb-06 09:53 110 6 8.7 3.0 Light rain.
2016-Feb-06 08:53 100 7 8.7 2.0 Light rain.
2016-Feb-06 08:48 100 6 8.7 3.0 Light rain.
2016-Feb-06 08:14 080 7 8.7 2.0 Light rain.